CZ-4C DEB, 43281

Orbit data source: Space-Track

CZ-4C DEB, 43281 is space debris in LEO originally from a launch on Tue, 10 Apr 2018 UTC launched from the Jiuquan Satellite Launch Center, China (JSC). Debris objects in space refer to the collection of defunct objects orbiting the Earth. Examples of debris include non-operational satellites, rocket bodies, and fragments generated from explosions, collisions, or faulty payload assembly.

Loading next visibility...
Identifier
43281, 2018-034G
Orbit
LEO
Country
Flag of CNCN / PRC
Related business
Manufacturer
Unknown
Mission
Spacecraft
Bus & Motor
Unknown
Mass
Unknown
Launch date (UTC)
2018-04-10 (8 years ago)
Launch vehicle
Unknown
Launch site
Jiuquan Satellite Launch Center, China (JSC)
Object type
Payload
Rocket body
Debris
Shape & HBR
Unknown shape, 3.2 m
Radar Cross Section
Large (>1 m²)

Expand to show TLE details & history
Last TLE update: 10 hours ago

TLE from 10 hours ago
0 CZ-4C DEB
1 43281U 18034G   25308.38924673  .00000072  00000-0  22887-3 0  9993
2 43281  63.3981 321.3154 0251509   7.0749 353.3720 13.44672258307441
Epoch: 2025-11-04T09:20Z
TLE epoch observation values (Epoch: 2025-11-04T09:20:30.917Z)
Latitude
-0.00002°
Longitude
137.3096°
Altitude
907.116 km
Speed
7.491 km/s
True Right ascension
21h 25m 15s
True Declination
0° 00' 00"
Sunlit
Object was in daylight at epoch
Visualization orbit readout
Latitude
Unknown
Longitude
Unknown
Altitude
Unknown
Speed
Unknown
Apparent Right ascension
Unknown
Apparent Declination
Unknown
Sunlit
N/A
Visualization observer readout
Local Sidereal Time
15:39:47
Azimuth
Unknown
Elevation
Unknown
Doppler factor
Unknown
Orbital elements
Apogee altitude
1,278.603 km
Perigee altitude
902.905 km
Semi-major axis
7,468.891 km
Eccentricity
0.02515
Inclination
63.3981°
RAAN
321.3154°
Arg. of periapsis
7.0749°
True anomaly
353.02864°
Mean anomaly
353.372°
Eccentric anomaly
353.20141°
Mean motion
3.36247 °/min
Orbital period
107.06 mins
BSTAR
0.00022887
Loading maneuver chart data...
Computing Atmospheric mass density...
Loading historical data...
Loading historical data...
Loading historical data...
Loading historical data...
Loading historical data...
Loading historical data...
Loading historical data...

Documentation

Showing up to 5 results
|